Weather History for KI75 - November, 2012

Change the Weather History Date:

Tuesday, November 6, 2012

  Actual Average (KLWD) Record (KLWD)
Temperature  
Mean Temperature 47 °F 44 °F  
Max Temperature 54 °F 54 °F 74 °F (1980)
Min Temperature 40 °F 35 °F 13 °F (1991)
Degree Days  
Heating Degree Days 18 21  
Month to date heating degree days 117  
Since 1 July heating degree days 601  
Cooling Degree Days 0 0  
Month to date cooling degree days 0  
Year to date cooling degree days 946  
Moisture  
Dew Point 37 °F    
Average Humidity 71    
Maximum Humidity 91    
Minimum Humidity 46    
Precipitation  
Precipitation 0.00 in 0.09 in 1.50 in (1972)
Month to date precipitation 0.69  
Sea Level Pressure  
Sea Level Pressure 29.96 in    
Wind  
Wind Speed 11 mph (West)    
Max Wind Speed 22 mph    
Max Gust Speed 30 mph    
Visibility 8 miles    
Events Rain    
T = Trace of Precipitation, MM = Missing Value Source: NWS Daily Summary

Daily Weather History Graph

Daily Weather History Graph

Search for Another Location

Airport or City:

Trip Planner

Search our weather history database for the weather conditions in past years. The results will help you decide how hot, cold, wet, or windy it might be!

Date:

Astronomy

Nov. 06, 2012 Rise Set
Actual Time 6:52 AM CST 5:04 PM CST
Civil Twilight 6:23 AM CST 5:32 PM CST
Nautical Twilight 5:50 AM CST 6:05 PM CST
Astronomical Twilight 5:18 AM CST 6:37 PM CST
Moon 11:44 PM CST 12:44 PM CST
Length of Visible Light 11h 09m
Length of Day
10h 11m
Waning Gibbous, 53% of the Moon is Illuminated
Nov 6
Waning Gibbous
Nov 6
Last Quarter
Nov 13
New
Nov 20
First Quarter
Nov 28
Full

Hourly Weather History & Observations

Time (CST) Temp. Windchill Dew Point Humidity Pressure Visibility Wind Dir Wind Speed Gust Speed Precip Events Conditions
12:15 AM 41.0 °F 38.0 °F 37.9 °F 89% 30.06 in 5.0 mi SSE 4.6 mph - N/A   Overcast
12:35 AM 40.8 °F 36.9 °F 38.1 °F 90% 30.04 in 5.0 mi SSE 5.8 mph - N/A   Overcast
12:55 AM 40.6 °F 37.5 °F 37.8 °F 89% 30.04 in 5.0 mi South 4.6 mph - N/A   Overcast
1:15 AM 40.6 °F 36.7 °F 37.8 °F 89% 30.04 in 5.0 mi SSW 5.8 mph - N/A   Overcast
1:35 AM 40.6 °F 37.5 °F 37.9 °F 90% 30.05 in 5.0 mi SW 4.6 mph - N/A   Overcast
1:55 AM 40.6 °F 37.5 °F 37.8 °F 89% 30.05 in 5.0 mi SSW 4.6 mph - N/A   Overcast
2:15 AM 40.6 °F 36.7 °F 37.8 °F 89% 30.03 in 5.0 mi South 5.8 mph - N/A   Overcast
2:35 AM 40.6 °F 37.5 °F 37.9 °F 90% 30.03 in 5.0 mi South 4.6 mph - N/A   Overcast
2:55 AM 40.6 °F 37.5 °F 37.9 °F 90% 30.03 in 4.0 mi SSW 4.6 mph - N/A   Overcast
3:15 AM 40.6 °F 35.4 °F 37.9 °F 90% 30.00 in 4.0 mi South 8.1 mph - N/A   Overcast
3:35 AM 40.6 °F 34.8 °F 38.3 °F 91% 29.99 in 4.0 mi South 9.2 mph - N/A   Overcast
3:55 AM 40.6 °F 35.4 °F 38.3 °F 91% 29.99 in 4.0 mi South 8.1 mph - N/A   Overcast
4:15 AM 41.0 °F 35.2 °F 38.3 °F 90% 29.97 in 4.0 mi South 9.2 mph - N/A   Overcast
4:35 AM 41.0 °F 34.7 °F 38.3 °F 90% 29.96 in 4.0 mi South 10.4 mph - N/A   Overcast
4:55 AM 41.0 °F 33.9 °F 38.3 °F 90% 29.96 in 5.0 mi SSW 12.7 mph - N/A   Overcast
5:35 AM 41.0 °F 35.2 °F 37.8 °F 88% 29.97 in 7.0 mi SSW 9.2 mph - N/A   Overcast
5:55 AM 41.0 °F 34.7 °F 37.4 °F 87% 29.95 in 7.0 mi SSW 10.4 mph - N/A   Drizzle
6:15 AM 41.0 °F 33.9 °F 37.4 °F 87% 29.94 in 7.0 mi South 12.7 mph - N/A   Overcast
6:35 AM 41.0 °F 33.5 °F 37.8 °F 88% 29.93 in 7.0 mi SSW 13.8 mph - N/A   Overcast
6:55 AM 41.0 °F 34.7 °F 38.3 °F 90% 29.94 in 7.0 mi SSW 10.4 mph - N/A   Overcast
7:15 AM 41.0 °F 33.9 °F 38.3 °F 90% 29.93 in 5.0 mi SSW 12.7 mph 16.1 mph N/A Rain Light Rain
7:35 AM 41.0 °F 35.2 °F 38.3 °F 90% 29.94 in 7.0 mi SSW 9.2 mph - N/A   Overcast
7:55 AM 41.4 °F 35.2 °F 38.5 °F 89% 29.94 in 5.0 mi SSW 10.4 mph - N/A   Overcast
8:15 AM 41.5 °F 34.6 °F 38.7 °F 89% 29.94 in 4.0 mi SW 12.7 mph - N/A   Overcast
8:35 AM 41.9 °F 35.0 °F 38.8 °F 89% 29.93 in 4.0 mi SW 12.7 mph - N/A   Overcast
8:55 AM 42.1 °F 35.2 °F 39.2 °F 90% 29.93 in 3.0 mi SW 12.7 mph 17.3 mph N/A   Overcast
9:15 AM 42.8 °F 37.5 °F 39.7 °F 89% 29.93 in 4.0 mi SW 9.2 mph - N/A   Overcast
9:35 AM 43.7 °F 37.7 °F 40.1 °F 87% 29.92 in 4.0 mi WSW 11.5 mph - N/A   Overcast
9:55 AM 44.2 °F 38.4 °F 40.5 °F 87% 29.92 in 7.0 mi West 11.5 mph 17.3 mph N/A   Overcast
10:15 AM 45.1 °F 39.1 °F 40.3 °F 83% 29.92 in 7.0 mi West 12.7 mph 21.9 mph N/A   Overcast
10:35 AM 45.7 °F 38.6 °F 40.5 °F 82% 29.93 in 10.0 mi WNW 17.3 mph - N/A   Overcast
10:55 AM 47.5 °F - 40.5 °F 77% 29.92 in 10.0 mi WNW 16.1 mph - N/A   Mostly Cloudy
11:15 AM 49.8 °F - 40.8 °F 71% 29.92 in 10.0 mi WNW 17.3 mph 23.0 mph N/A   Mostly Cloudy
11:35 AM 50.4 °F - 39.9 °F 67% 29.91 in 10.0 mi NW 18.4 mph 24.2 mph N/A   Mostly Cloudy
11:55 AM 52.2 °F - 40.6 °F 65% 29.91 in 10.0 mi WNW 18.4 mph 24.2 mph N/A   Mostly Cloudy
12:15 PM 52.0 °F - 38.8 °F 61% 29.90 in 10.0 mi WNW 18.4 mph 25.3 mph N/A   Scattered Clouds
12:35 PM 53.4 °F - 38.7 °F 57% 29.90 in 10.0 mi WNW 15.0 mph 23.0 mph N/A   Scattered Clouds
12:55 PM 53.6 °F - 36.1 °F 52% 29.90 in 10.0 mi WNW 21.9 mph 29.9 mph N/A   Scattered Clouds
1:15 PM 54.5 °F - 35.6 °F 49% 29.89 in 10.0 mi WNW 18.4 mph 26.5 mph N/A   Scattered Clouds
1:35 PM 54.3 °F - 35.1 °F 48% 29.89 in 10.0 mi WNW 19.6 mph 27.6 mph N/A   Scattered Clouds
1:55 PM 54.7 °F - 34.2 °F 46% 29.90 in 10.0 mi WNW 19.6 mph 26.5 mph N/A   Scattered Clouds
2:15 PM 53.6 °F - 33.3 °F 46% 29.90 in 10.0 mi NW 17.3 mph 25.3 mph N/A   Mostly Cloudy
2:35 PM 52.9 °F - 33.6 °F 48% 29.91 in 10.0 mi NW 17.3 mph 26.5 mph N/A   Overcast
2:55 PM 53.4 °F - 34.3 °F 48% 29.91 in 10.0 mi NW 18.4 mph 26.5 mph N/A   Overcast
3:15 PM 52.0 °F - 34.0 °F 50% 29.92 in 10.0 mi WNW 19.6 mph 28.8 mph N/A   Overcast
3:35 PM 51.4 °F - 34.9 °F 53% 29.93 in 10.0 mi WNW 16.1 mph 20.7 mph N/A   Overcast
3:55 PM 51.3 °F - 35.4 °F 55% 29.92 in 10.0 mi WNW 12.7 mph 19.6 mph N/A   Overcast
4:15 PM 51.4 °F - 35.4 °F 54% 29.93 in 10.0 mi WNW 15.0 mph 19.6 mph N/A   Overcast
4:35 PM 51.3 °F - 35.4 °F 55% 29.93 in 10.0 mi WNW 15.0 mph - N/A   Overcast
4:55 PM 51.3 °F - 35.4 °F 55% 29.93 in 10.0 mi NW 11.5 mph 19.6 mph N/A   Overcast
5:15 PM 51.3 °F - 35.2 °F 54% 29.94 in 10.0 mi WNW 17.3 mph 23.0 mph N/A   Overcast
5:35 PM 50.9 °F - 35.6 °F 56% 29.95 in 10.0 mi NW 13.8 mph 21.9 mph N/A   Overcast
5:55 PM 50.9 °F - 35.4 °F 55% 29.96 in 10.0 mi NW 17.3 mph 21.9 mph N/A   Overcast
6:15 PM 50.2 °F - 35.1 °F 56% 29.97 in 10.0 mi NW 13.8 mph 28.8 mph N/A   Overcast
6:35 PM 49.6 °F - 35.1 °F 57% 29.98 in 10.0 mi NW 16.1 mph 20.7 mph N/A   Overcast
6:55 PM 49.5 °F - 34.3 °F 56% 29.98 in 10.0 mi NW 16.1 mph 23.0 mph N/A   Overcast
7:15 PM 49.1 °F - 34.7 °F 58% 29.98 in 10.0 mi NW 15.0 mph 23.0 mph N/A   Overcast
7:35 PM 49.1 °F - 34.7 °F 58% 29.98 in 10.0 mi NW 13.8 mph 21.9 mph N/A   Overcast
7:55 PM 48.7 °F - 34.7 °F 58% 29.98 in 10.0 mi NW 13.8 mph 19.6 mph N/A   Overcast
8:15 PM 48.7 °F - 34.2 °F 57% 29.98 in 10.0 mi NW 13.8 mph 24.2 mph N/A   Overcast
8:35 PM 48.6 °F - 34.5 °F 58% 29.98 in 10.0 mi NW 13.8 mph 21.9 mph N/A   Overcast
8:55 PM 47.8 °F - 35.1 °F 61% 29.99 in 10.0 mi NW 8.1 mph - N/A   Overcast
9:15 PM 47.7 °F - 35.1 °F 62% 29.99 in 10.0 mi NW 15.0 mph - N/A   Overcast
9:35 PM 47.5 °F - 34.9 °F 62% 29.99 in 10.0 mi NW 12.7 mph - N/A   Overcast
9:55 PM 47.5 °F - 34.3 °F 60% 29.98 in 10.0 mi NW 17.3 mph 21.9 mph N/A   Overcast
10:15 PM 47.8 °F - 32.0 °F 54% 29.98 in 10.0 mi NW 16.1 mph 28.8 mph N/A   Overcast
10:35 PM 47.7 °F - 31.3 °F 53% 29.98 in 10.0 mi NW 17.3 mph 26.5 mph N/A   Overcast
10:55 PM 47.5 °F - 31.5 °F 54% 29.98 in 10.0 mi NW 12.7 mph 24.2 mph N/A   Overcast
11:15 PM 46.9 °F - 32.0 °F 56% 29.98 in 10.0 mi NW 10.4 mph 16.1 mph N/A   Overcast
11:35 PM 47.1 °F - 32.0 °F 56% 29.98 in 10.0 mi WNW 16.1 mph - N/A   Overcast
11:55 PM 46.8 °F - 32.0 °F 57% 29.99 in 10.0 mi NW 16.1 mph 19.6 mph N/A   Overcast